Time,TemperatureF,DewpointF,PressureIn,WindDirection,WindDirectionDegrees,WindSpeedMPH,WindSpeedGustMPH,Humidity,HourlyPrecipIn,Conditions,Clouds,dailyrainin,SolarRadiationWatts/m^2,SoftwareType,DateUTC
2013-01-19 00:02:00,17.0,9.0,-100.00,SW,227,5.0,11.0,71,0.00,,,0.00,1.000000,,2013-01-19 08:02:00,
2013-01-19 00:12:00,17.0,9.0,-100.00,SW,227,5.0,11.0,71,0.00,,,0.00,1.000000,,2013-01-19 08:12:00,
2013-01-19 00:43:00,17.0,10.0,-100.00,SW,234,7.0,14.0,72,0.00,,,0.00,1.000000,,2013-01-19 08:43:00,
2013-01-19 00:53:00,17.0,10.0,-100.00,SW,234,7.0,14.0,72,0.00,,,0.00,1.000000,,2013-01-19 08:53:00,
2013-01-19 01:02:00,17.0,10.0,-100.00,SW,234,7.0,14.0,72,0.00,,,0.00,1.000000,,2013-01-19 09:02:00,
2013-01-19 01:12:00,17.0,10.0,-100.00,SW,234,7.0,14.0,72,0.00,,,0.00,1.000000,,2013-01-19 09:12:00,
2013-01-19 01:43:00,15.0,9.0,-100.00,ENE,65,3.0,12.0,75,0.00,,,-99.99,1.000000,,2013-01-19 09:43:00,
2013-01-19 01:52:00,15.0,9.0,-100.00,ENE,65,3.0,12.0,75,0.00,,,-99.99,1.000000,,2013-01-19 09:52:00,
2013-01-19 02:02:00,15.0,9.0,-100.00,ENE,65,3.0,12.0,75,0.00,,,-99.99,1.000000,,2013-01-19 10:02:00,
2013-01-19 02:12:00,15.0,9.0,-100.00,ENE,65,3.0,12.0,75,0.00,,,-99.99,1.000000,,2013-01-19 10:12:00,
2013-01-19 02:33:00,14.0,7.0,-100.00,North,2,3.0,8.0,74,0.00,,,0.00,1.000000,,2013-01-19 10:33:00,
2013-01-19 02:43:00,14.0,7.0,-100.00,North,2,3.0,8.0,74,0.00,,,0.00,1.000000,,2013-01-19 10:43:00,
2013-01-19 02:53:00,14.0,7.0,-100.00,North,2,3.0,8.0,74,0.00,,,0.00,1.000000,,2013-01-19 10:53:00,
2013-01-19 03:02:00,14.0,7.0,-100.00,North,2,3.0,8.0,74,0.00,,,0.00,1.000000,,2013-01-19 11:02:00,
2013-01-19 03:12:00,14.0,7.0,-100.00,North,2,3.0,8.0,74,0.00,,,0.00,1.000000,,2013-01-19 11:12:00,
2013-01-19 04:48:00,15.0,8.0,-100.00,WSW,254,5.0,10.0,74,0.00,,,0.00,1.000000,,2013-01-19 12:48:00,
2013-01-19 05:02:00,15.0,8.0,-100.00,WSW,254,5.0,10.0,74,0.00,,,0.00,1.000000,,2013-01-19 13:02:00,
2013-01-19 05:12:00,15.0,8.0,-100.00,WSW,254,5.0,10.0,74,0.00,,,0.00,1.000000,,2013-01-19 13:12:00,
2013-01-19 05:43:00,13.0,7.0,-100.00,North,11,3.0,10.0,76,0.00,,,0.00,1.000000,,2013-01-19 13:43:00,
2013-01-19 05:53:00,13.0,7.0,-100.00,North,11,3.0,10.0,76,0.00,,,0.00,1.000000,,2013-01-19 13:53:00,
2013-01-19 06:02:00,13.0,7.0,-100.00,North,11,3.0,10.0,76,0.00,,,0.00,1.000000,,2013-01-19 14:02:00,
2013-01-19 06:12:00,13.0,7.0,-100.00,North,11,3.0,10.0,76,0.00,,,0.00,1.000000,,2013-01-19 14:12:00,
2013-01-19 06:43:00,14.0,7.0,-100.00,West,269,3.0,6.0,74,0.00,,,0.00,1.000000,,2013-01-19 14:43:00,
2013-01-19 06:53:00,14.0,7.0,-100.00,West,269,3.0,6.0,74,0.00,,,0.00,1.000000,,2013-01-19 14:53:00,
2013-01-19 07:03:00,14.0,7.0,-100.00,West,269,3.0,6.0,74,0.00,,,0.00,1.000000,,2013-01-19 15:03:00,
2013-01-19 07:12:00,14.0,7.0,-100.00,West,269,3.0,6.0,74,0.00,,,0.00,1.000000,,2013-01-19 15:12:00,
2013-01-19 07:43:00,13.0,7.0,-100.00,ENE,65,2.0,10.0,76,0.00,,,0.00,1.000000,,2013-01-19 15:43:00,
2013-01-19 07:53:00,13.0,7.0,-100.00,ENE,65,2.0,10.0,76,0.00,,,0.00,1.000000,,2013-01-19 15:53:00,
2013-01-19 08:02:00,13.0,7.0,-100.00,ENE,65,2.0,10.0,76,0.00,,,0.00,1.000000,,2013-01-19 16:02:00,
2013-01-19 08:12:00,13.0,7.0,-100.00,ENE,65,2.0,10.0,76,0.00,,,0.00,1.000000,,2013-01-19 16:12:00,
2013-01-19 08:14:00,16.0,8.0,-100.00,SSW,200,7.0,11.0,70,0.00,,,0.00,29.000000,,2013-01-19 16:14:00,
2013-01-19 08:33:00,16.0,8.0,-100.00,SSW,200,7.0,11.0,70,0.00,,,0.00,29.000000,,2013-01-19 16:33:00,
2013-01-19 08:43:00,16.0,8.0,-100.00,SSW,200,7.0,11.0,70,0.00,,,0.00,29.000000,,2013-01-19 16:43:00,
2013-01-19 08:54:00,16.0,8.0,-100.00,SSW,200,7.0,11.0,70,0.00,,,0.00,29.000000,,2013-01-19 16:54:00,
2013-01-19 09:02:00,16.0,8.0,-100.00,SSW,200,7.0,11.0,70,0.00,,,0.00,29.000000,,2013-01-19 17:02:00,
2013-01-19 09:37:00,19.0,9.0,-100.00,SW,236,5.0,11.0,65,0.00,,,-99.99,188.000000,,2013-01-19 17:37:00,
2013-01-19 09:50:00,19.0,9.0,-100.00,SW,236,5.0,11.0,65,0.00,,,-99.99,188.000000,,2013-01-19 17:50:00,
2013-01-19 10:05:00,19.0,9.0,-100.00,SW,236,5.0,11.0,65,0.00,,,-99.99,188.000000,,2013-01-19 18:05:00,
2013-01-19 10:13:00,19.0,9.0,-100.00,SW,236,5.0,11.0,65,0.00,,,-99.99,188.000000,,2013-01-19 18:13:00,
2013-01-19 10:38:00,22.0,10.0,-100.00,SW,223,4.0,9.0,60,0.00,,,0.00,296.000000,,2013-01-19 18:38:00,
2013-01-19 10:46:00,22.0,10.0,-100.00,SW,223,4.0,9.0,60,0.00,,,0.00,296.000000,,2013-01-19 18:46:00,
2013-01-19 10:59:00,22.0,10.0,-100.00,SW,223,4.0,9.0,60,0.00,,,0.00,296.000000,,2013-01-19 18:59:00,
2013-01-19 11:05:00,22.0,10.0,-100.00,SW,223,4.0,9.0,60,0.00,,,0.00,296.000000,,2013-01-19 19:05:00,
2013-01-19 11:14:00,25.0,11.0,-100.00,West,259,5.0,12.0,55,0.00,,,0.00,371.000000,,2013-01-19 19:14:00,
2013-01-19 11:49:00,25.0,11.0,-100.00,West,259,5.0,12.0,55,0.00,,,0.00,371.000000,,2013-01-19 19:49:00,
2013-01-19 11:55:00,25.0,11.0,-100.00,West,259,5.0,12.0,55,0.00,,,0.00,371.000000,,2013-01-19 19:55:00,
2013-01-19 12:07:00,25.0,11.0,-100.00,West,259,5.0,12.0,55,0.00,,,0.00,371.000000,,2013-01-19 20:07:00,
2013-01-19 12:50:00,28.0,14.0,-100.00,SW,220,7.0,15.0,54,0.00,,,0.00,421.000000,,2013-01-19 20:50:00,
2013-01-19 12:56:00,28.0,14.0,-100.00,SW,220,7.0,15.0,54,0.00,,,0.00,421.000000,,2013-01-19 20:56:00,
2013-01-19 13:04:00,28.0,14.0,-100.00,SW,220,7.0,15.0,54,0.00,,,0.00,421.000000,,2013-01-19 21:04:00,
2013-01-19 13:13:00,28.0,14.0,-100.00,SW,220,7.0,15.0,54,0.00,,,0.00,421.000000,,2013-01-19 21:13:00,
2013-01-19 13:14:00,28.0,14.0,-100.00,SSW,204,11.0,18.0,54,0.00,,,0.00,410.000000,,2013-01-19 21:14:00,
2013-01-19 13:53:00,28.0,14.0,-100.00,SSW,204,11.0,18.0,54,0.00,,,0.00,410.000000,,2013-01-19 21:53:00,
2013-01-19 13:59:00,28.0,14.0,-100.00,SSW,204,11.0,18.0,54,0.00,,,0.00,410.000000,,2013-01-19 21:59:00,
2013-01-19 14:07:00,28.0,14.0,-100.00,SSW,204,11.0,18.0,54,0.00,,,0.00,410.000000,,2013-01-19 22:07:00,
2013-01-19 14:48:00,28.0,14.0,-100.00,SSW,197,14.0,20.0,56,0.00,,,0.00,346.000000,,2013-01-19 22:48:00,
2013-01-19 14:57:00,28.0,14.0,-100.00,SSW,197,14.0,20.0,56,0.00,,,0.00,346.000000,,2013-01-19 22:57:00,
2013-01-19 15:07:00,28.0,14.0,-100.00,SSW,197,14.0,20.0,56,0.00,,,0.00,346.000000,,2013-01-19 23:07:00,
2013-01-19 15:13:00,28.0,14.0,-100.00,SSW,197,14.0,20.0,56,0.00,,,0.00,346.000000,,2013-01-19 23:13:00,
2013-01-19 15:49:00,28.0,14.0,-100.00,SSW,198,13.0,19.0,54,0.00,,,0.00,259.000000,,2013-01-19 23:49:00,
2013-01-19 16:05:00,28.0,14.0,-100.00,SSW,198,13.0,19.0,54,0.00,,,0.00,259.000000,,2013-01-20 00:05:00,
2013-01-19 16:14:00,24.0,13.0,-100.00,SW,215,8.0,14.0,61,0.00,,,0.00,130.000000,,2013-01-20 00:14:00,
2013-01-19 16:38:00,24.0,13.0,-100.00,SW,215,8.0,14.0,61,0.00,,,0.00,130.000000,,2013-01-20 00:38:00,
2013-01-19 16:47:00,24.0,13.0,-100.00,SW,215,8.0,14.0,61,0.00,,,0.00,130.000000,,2013-01-20 00:47:00,
2013-01-19 16:55:00,24.0,13.0,-100.00,SW,215,8.0,14.0,61,0.00,,,0.00,130.000000,,2013-01-20 00:55:00,
2013-01-19 17:03:00,24.0,13.0,-100.00,SW,215,8.0,14.0,61,0.00,,,0.00,130.000000,,2013-01-20 01:03:00,
2013-01-19 17:39:00,21.0,12.0,-100.00,West,267,5.0,11.0,67,0.00,,,0.00,9.000000,,2013-01-20 01:39:00,
2013-01-19 17:50:00,21.0,12.0,-100.00,West,267,5.0,11.0,67,0.00,,,0.00,9.000000,,2013-01-20 01:50:00,
2013-01-19 18:02:00,21.0,12.0,-100.00,West,267,5.0,11.0,67,0.00,,,0.00,9.000000,,2013-01-20 02:02:00,
2013-01-19 18:13:00,21.0,12.0,-100.00,West,267,5.0,11.0,67,0.00,,,0.00,9.000000,,2013-01-20 02:13:00,
2013-01-19 18:45:00,18.0,10.0,-100.00,West,261,4.0,9.0,71,0.00,,,-99.99,1.000000,,2013-01-20 02:45:00,
2013-01-19 18:58:00,18.0,10.0,-100.00,West,261,4.0,9.0,71,0.00,,,-99.99,1.000000,,2013-01-20 02:58:00,
2013-01-19 19:14:00,18.0,10.0,-100.00,SW,217,3.0,7.0,70,0.00,,,0.00,1.000000,,2013-01-20 03:14:00,
2013-01-19 19:39:00,18.0,10.0,-100.00,SW,217,3.0,7.0,70,0.00,,,0.00,1.000000,,2013-01-20 03:39:00,
2013-01-19 19:46:00,18.0,10.0,-100.00,SW,217,3.0,7.0,70,0.00,,,0.00,1.000000,,2013-01-20 03:46:00,
2013-01-19 19:56:00,18.0,10.0,-100.00,SW,217,3.0,7.0,70,0.00,,,0.00,1.000000,,2013-01-20 03:56:00,
2013-01-19 20:04:00,18.0,10.0,-100.00,SW,217,3.0,7.0,70,0.00,,,0.00,1.000000,,2013-01-20 04:04:00,
2013-01-19 20:45:00,17.0,9.0,-100.00,NNE,14,2.0,9.0,71,0.00,,,0.00,1.000000,,2013-01-20 04:45:00,
2013-01-19 20:55:00,17.0,9.0,-100.00,NNE,14,2.0,9.0,71,0.00,,,0.00,1.000000,,2013-01-20 04:55:00,
2013-01-19 21:03:00,17.0,9.0,-100.00,NNE,14,2.0,9.0,71,0.00,,,0.00,1.000000,,2013-01-20 05:03:00,
2013-01-19 21:12:00,17.0,9.0,-100.00,NNE,14,2.0,9.0,71,0.00,,,0.00,1.000000,,2013-01-20 05:12:00,
2013-01-19 21:33:00,17.0,9.0,-100.00,NE,39,2.0,9.0,71,0.00,,,0.00,1.000000,,2013-01-20 05:33:00,
2013-01-19 21:43:00,17.0,9.0,-100.00,NE,39,2.0,9.0,71,0.00,,,0.00,1.000000,,2013-01-20 05:43:00,
2013-01-19 21:53:00,17.0,9.0,-100.00,NE,39,2.0,9.0,71,0.00,,,0.00,1.000000,,2013-01-20 05:53:00,
2013-01-19 22:02:00,17.0,9.0,-100.00,NE,39,2.0,9.0,71,0.00,,,0.00,1.000000,,2013-01-20 06:02:00,
2013-01-19 22:11:00,17.0,9.0,-100.00,NE,39,2.0,9.0,71,0.00,,,0.00,1.000000,,2013-01-20 06:11:00,
2013-01-19 22:33:00,16.0,9.0,-100.00,NE,47,3.0,5.0,74,0.00,,,0.00,1.000000,,2013-01-20 06:33:00,
2013-01-19 22:43:00,16.0,9.0,-100.00,NE,47,3.0,5.0,74,0.00,,,0.00,1.000000,,2013-01-20 06:43:00,
2013-01-19 22:53:00,16.0,9.0,-100.00,NE,47,3.0,5.0,74,0.00,,,0.00,1.000000,,2013-01-20 06:53:00,
2013-01-19 23:02:00,16.0,9.0,-100.00,NE,47,3.0,5.0,74,0.00,,,0.00,1.000000,,2013-01-20 07:02:00,
2013-01-19 23:11:00,16.0,9.0,-100.00,NE,47,3.0,5.0,74,0.00,,,0.00,1.000000,,2013-01-20 07:11:00,
2013-01-19 23:32:00,17.0,9.0,-100.00,SSE,162,3.0,6.0,70,0.00,,,0.00,1.000000,,2013-01-20 07:32:00,
2013-01-19 23:42:00,17.0,9.0,-100.00,SSE,162,3.0,6.0,70,0.00,,,0.00,1.000000,,2013-01-20 07:42:00,
2013-01-19 23:52:00,17.0,9.0,-100.00,SSE,162,3.0,6.0,70,0.00,,,0.00,1.000000,,2013-01-20 07:52:00,